TimeAKST,TemperatureF,Dew PointF,Humidity,Sea Level PressureIn,VisibilityMPH,Wind Direction,Wind SpeedMPH,Gust SpeedMPH,PrecipitationIn,Events,Conditions,WindDirDegrees,DateUTC
12:53 AM,42.1,37.9,85,30.49,10.0,South,8.1,-,N/A,,Overcast,180,2013-01-15 09:53:00
1:14 AM,42.8,37.4,81,30.49,10.0,South,9.2,16.1,N/A,,Overcast,170,2013-01-15 10:14:00
1:53 AM,41.0,39.0,93,30.50,9.0,SSW,6.9,-,0.00,,Overcast,200,2013-01-15 10:53:00
3:53 AM,42.1,37.9,85,30.47,10.0,South,4.6,-,N/A,,Overcast,190,2013-01-15 12:53:00
4:53 AM,41.0,37.0,86,30.46,10.0,SE,3.5,-,N/A,,Overcast,130,2013-01-15 13:53:00
5:53 AM,41.0,37.0,86,30.46,10.0,South,4.6,-,N/A,,Overcast,190,2013-01-15 14:53:00
6:53 AM,41.0,37.9,89,30.46,10.0,SE,5.8,-,N/A,,Overcast,140,2013-01-15 15:53:00
7:53 AM,42.1,36.0,79,30.46,10.0,SSE,5.8,-,N/A,,Overcast,160,2013-01-15 16:53:00
8:53 AM,42.1,36.0,79,30.45,10.0,South,6.9,-,N/A,,Overcast,170,2013-01-15 17:53:00
9:31 AM,42.8,37.4,81,30.46,10.0,SE,9.2,-,N/A,,Overcast,140,2013-01-15 18:31:00
9:53 AM,42.1,37.0,82,30.47,10.0,SE,8.1,-,N/A,,Overcast,140,2013-01-15 18:53:00
10:53 AM,43.0,39.0,86,30.43,10.0,SSE,9.2,-,N/A,,Overcast,150,2013-01-15 19:53:00
11:53 AM,43.0,39.0,86,30.42,10.0,SSE,10.4,17.3,N/A,,Overcast,150,2013-01-15 20:53:00
12:00 PM,42.8,39.2,87,30.41,10.0,SSE,9.2,-,N/A,,Overcast,150,2013-01-15 21:00:00
12:53 PM,43.0,39.0,86,30.39,10.0,SSE,11.5,18.4,N/A,,Overcast,150,2013-01-15 21:53:00
1:35 PM,44.6,39.2,81,30.38,8.0,SSE,6.9,-,N/A,,Overcast,160,2013-01-15 22:35:00
1:53 PM,44.1,39.9,85,30.40,7.0,South,9.2,16.1,0.00,Rain,Light Rain,180,2013-01-15 22:53:00
2:08 PM,42.8,39.2,87,30.39,2.5,South,8.1,-,0.00,Rain,Light Rain,170,2013-01-15 23:08:00
2:27 PM,42.8,41.0,93,30.38,3.0,SSE,9.2,17.3,0.01,Rain,Light Rain,160,2013-01-15 23:27:00
2:53 PM,43.0,42.1,97,30.38,5.0,South,8.1,18.4,0.01,,Overcast,170,2013-01-15 23:53:00
3:53 PM,43.0,42.1,97,30.39,4.0,SSE,5.8,-,0.03,Rain,Light Rain,160,2013-01-16 00:53:00
4:53 PM,44.1,42.1,93,30.39,5.0,South,9.2,17.3,0.01,Rain,Light Rain,180,2013-01-16 01:53:00
5:36 PM,44.6,42.8,93,30.37,4.0,South,13.8,19.6,0.02,Rain,Light Rain,190,2013-01-16 02:36:00
5:53 PM,44.1,42.1,93,30.38,4.0,South,12.7,21.9,0.02,Rain,Light Rain,190,2013-01-16 02:53:00
6:53 PM,44.1,43.0,96,30.38,10.0,South,8.1,17.3,0.01,,Overcast,190,2013-01-16 03:53:00
7:03 PM,44.6,42.8,93,30.37,10.0,SSW,6.9,-,N/A,,Overcast,200,2013-01-16 04:03:00
7:49 PM,44.6,42.8,93,30.38,10.0,South,8.1,-,N/A,,Overcast,190,2013-01-16 04:49:00
7:53 PM,45.0,42.1,90,30.38,10.0,South,6.9,-,N/A,,Overcast,190,2013-01-16 04:53:00
8:53 PM,44.1,42.1,93,30.39,10.0,SSW,9.2,-,N/A,,Overcast,200,2013-01-16 05:53:00
9:53 PM,44.1,41.0,89,30.40,10.0,SSW,4.6,-,N/A,,Overcast,210,2013-01-16 06:53:00
10:53 PM,43.0,41.0,93,30.42,10.0,Calm,Calm,-,N/A,,Overcast,0,2013-01-16 07:53:00
11:36 PM,42.8,41.0,93,30.43,10.0,Calm,Calm,-,N/A,,Overcast,0,2013-01-16 08:36:00
11:53 PM,43.0,39.9,89,30.43,10.0,Calm,Calm,-,N/A,,Overcast,0,2013-01-16 08:53:00